OPS 4682 DEB, 38367

Orbit data source: Space-Track

OPS 4682 DEB, 38367 is space debris in LEO originally from a launch on Sat, 03 Apr 1965 UTC launched from the Air Force Western Test Range (AFWTR). Debris objects in space refer to the collection of defunct objects orbiting the Earth. Examples of debris include non-operational satellites, rocket bodies, and fragments generated from explosions, collisions, or faulty payload assembly.

Loading next visibility...
Identifier
38367, 1965-027BU
Orbit
LEO
Country
Flag of USUS
Related business
Manufacturer
Unknown
Mission
Spacecraft
Bus & Motor
Unknown
Mass
Unknown
Launch date (UTC)
1965-04-03 (61 years ago)
Launch vehicle
Unknown
Launch site
Air Force Western Test Range (AFWTR)
Object type
Payload
Rocket body
Debris
Shape & HBR
Unknown shape, 0.1 m
Radar Cross Section
Small (<0.1 m²)

Expand to show TLE details & history
Last TLE update: 2 days ago

TLE from 2 days ago
0 OPS 4682 DEB
1 38367U 65027BU  25301.43946670  .00000015  00000-0  25035-4 0  9992
2 38367  90.2445   5.6163 0033932  29.0992 331.2010 12.96591112278841
Epoch: 2025-10-28T10:32Z
TLE epoch observation values (Epoch: 2025-10-28T10:32:49.922Z)
Latitude
-0.00004°
Longitude
170.38135°
Altitude
1,255.609 km
Speed
7.238 km/s
True Right ascension
00h 22m 27s
True Declination
0° 00' 00"
Sunlit
Object was in full shadow at epoch
Visualization orbit readout
Latitude
Unknown
Longitude
Unknown
Altitude
Unknown
Speed
Unknown
Apparent Right ascension
Unknown
Apparent Declination
Unknown
Sunlit
N/A
Visualization observer readout
Local Sidereal Time
11:23:10
Azimuth
Unknown
Elevation
Unknown
Doppler factor
Unknown
Orbital elements
Apogee altitude
1,298.565 km
Perigee altitude
1,246.644 km
Semi-major axis
7,650.741 km
Eccentricity
0.00339
Inclination
90.2445°
RAAN
5.6163°
Arg. of periapsis
29.0992°
True anomaly
331.01299°
Mean anomaly
331.201°
Eccentric anomaly
331.10706°
Mean motion
3.24331 °/min
Orbital period
111 mins
BSTAR
0.000025035
Loading maneuver chart data...
Computing Atmospheric mass density...
Loading historical data...
Loading historical data...
Loading historical data...
Loading historical data...
Loading historical data...
Loading historical data...
Loading historical data...

Documentation

Showing up to 5 results
|